DMSP 5D-2 F11 DEB, 28319

Orbit data source: Space-Track

DMSP 5D-2 F11 DEB, 28319 is space debris in SSO originally from a launch on Thu, 28 Nov 1991 UTC launched from the Air Force Western Test Range (AFWTR). Debris objects in space refer to the collection of defunct objects orbiting the Earth. Examples of debris include non-operational satellites, rocket bodies, and fragments generated from explosions, collisions, or faulty payload assembly.

Loading next visibility...
Identifier
28319, 1991-082AG
Orbit
SSO
Country
Flag of USUS
Related business
Manufacturer
Unknown
Mission
Spacecraft
Bus & Motor
Unknown
Mass
Unknown
Launch date (UTC)
1991-11-28 (34 years ago)
Launch vehicle
Unknown
Launch site
Air Force Western Test Range (AFWTR)
Object type
Payload
Rocket body
Debris
Shape & HBR
Unknown shape, 0.1 m
Radar Cross Section
Small (<0.1 m²)

Expand to show TLE details & history
Last TLE update: 8 hours ago

TLE from 8 hours ago
0 DMSP 5D-2 F11 DEB
1 28319U 91082AG  26121.26989693  .00057387  00000-0  59395-2 0  9990
2 28319  98.7526 233.1982 0017991 345.7421  14.3283 14.89686654145292
Epoch: 2026-05-01T06:28Z
TLE epoch observation values (Epoch: 2026-05-01T06:28:39.094Z)
Latitude
-0.00009°
Longitude
-83.16924°
Altitude
589.758 km
Speed
7.572 km/s
True Right ascension
15h 32m 47s
True Declination
0° 00' 00"
Sunlit
Object was in full shadow at epoch
Visualization orbit readout
Latitude
Unknown
Longitude
Unknown
Altitude
Unknown
Speed
Unknown
Apparent Right ascension
Unknown
Apparent Declination
Unknown
Sunlit
N/A
Visualization observer readout
Local Sidereal Time
21:52:45
Azimuth
Unknown
Elevation
Unknown
Doppler factor
Unknown
Orbital elements
Apogee altitude
608.529 km
Perigee altitude
583.435 km
Semi-major axis
6,974.119 km
Eccentricity
0.0018
Inclination
98.7526°
RAAN
233.1982°
Arg. of periapsis
345.7421°
True anomaly
14.37943°
Mean anomaly
14.3283°
Eccentric anomaly
14.35385°
Mean motion
3.72657 °/min
Orbital period
96.6 mins
BSTAR
0.0059395
Loading maneuver chart data...
Computing Atmospheric mass density...
Loading historical data...
Loading historical data...
Loading historical data...
Loading historical data...
Loading historical data...
Loading historical data...
Loading historical data...

Documentation

Showing up to 5 results
|